Flag for Germany Weather past 2 weeks in Bad Oeynhausen, North Rhine-Westphalia, Germany

45 °F


Feels Like: 41 °F
Forecast: 35 / 47 °F
Wind: 7 mph from Northeast

Location: Bueckeburg

Current Time: Oct 10, 2015 at 8:02:16 AM

Latest Report: Oct 10, 2015 at 7:20 AM

Visibility: 3 mi

Pressure: 30.18 "Hg

Humidity: 93%

Dew point: 43 °F

Location of Bad OeynhausenLocation

Historic Weather in Bad Oeynhausen — Graph


Bad Oeynhausen temperature yesterday

Maximum temperature yesterday: 57 °F (at 12:20 PM)
Minimum temperature yesterday: 52 °F (at 7:20 PM)
Average temperature yesterday: 55 °F

Past Weeks' High & Low Weather Summary

High68 °F (Oct 3, 3:20 PM)100% (Sep 25, 6:20 AM)30.69 "Hg (Sep 25, 6:20 AM)
Low36 °F (Oct 2, 6:20 AM)42% (Oct 1, 4:20 PM)29.65 "Hg (Oct 6, 7:49 AM)
Average53 °F85%30.23 "Hg
* Reported Sep 25 6:20 AM — Oct 10 6:20 AM, Bad Oeynhausen, Weather by CustomWeather, © 2015

Note: Actual official high and low records may vary slightly from our data, if they occured in-between our weather recording intervals... More about our weather records


Bad Oeynhausen weather history for previous 24 hours

Time TempWeatherWind HumidityBarometerVisibility
6:20 AM
Sat, Oct 10
45 °FFog.5 mph93%30.18 "Hg3 mi
5:20 AM45 °FFog.7 mph100%30.18 "Hg2 mi
4:53 AM45 °FFog.7 mph100%30.18 "Hg2 mi
4:20 AM46 °FFog.5 mph93%30.18 "Hg3 mi
3:20 AM48 °FPassing clouds.7 mph87%30.18 "Hg4 mi
2:20 AM50 °FLow clouds.8 mph88%30.18 "Hg4 mi
1:20 AM50 °FFog.9 mph94%30.18 "Hg3 mi
12:20 AM50 °FFog.8 mph94%30.18 "Hg3 mi
11:20 PM
Fri, Oct 9
52 °FDrizzle. Fog.7 mph94%30.21 "Hg2 mi
10:20 PM52 °FFog.9 mph94%30.21 "Hg2 mi
9:20 PM52 °FDrizzle. Fog.10 mph94%30.18 "Hg2 mi
8:20 PM52 °FFog.10 mph94%30.18 "Hg3 mi
7:20 PM52 °FLow clouds.10 mph100%30.18 "Hg5 mi
6:20 PM54 °FPartly sunny.8 mph94%30.18 "Hg6 mi
5:20 PM54 °FPartly sunny.9 mph94%30.15 "Hg5 mi
4:20 PM55 °FBroken clouds.8 mph94%30.15 "Hg4 mi
3:20 PM55 °FPartly sunny.8 mph94%30.15 "Hg4 mi
2:20 PM55 °FDrizzle. Fog.6 mph100%30.15 "Hg3 mi
1:20 PM55 °FDrizzle. Partly sunny.8 mph94%30.15 "Hg4 mi
1:00 PM57 °FDrizzle. Fog.5 mph94%30.15 "Hg3 mi
12:20 PM57 °FLight rain. Partly sunny.7 mph94%30.15 "Hg4 mi
11:20 AM55 °FLight rain. Fog.7 mph100%30.15 "Hg3 mi
10:20 AM55 °FLight rain. Fog.5 mph100%30.15 "Hg2 mi
9:20 AM55 °FLight rain. Fog.3 mph94%30.15 "Hg2 mi
8:20 AM55 °FRain. Fog.3 mph94%30.15 "Hg2 mi
Weather by CustomWeather, © 2015

See weather overviewHow to use our weather pages